Regional Weather Roundup
Issued by NWS Charleston, WV

Home | Current Version | Previous Version | Text Only | Print | Product List | Glossary Off
Versions: 1 2 3 4 5 6 7 8 9 10 11 12 13 14 15 16 17 18 19 20 21 22 23 24 25 26 27

000
ASUS41 KRLX 281110
RWRRLX
West Virginia Regional Weather Roundup
National Weather Service Charleston WV
700 AM EDT FRI APR 28 2017

Note: "fair" indicates few or no clouds below 12,000 feet with no
significant weather and/or obstructions to visibility.

WVZ003-281200-
Northern Panhandle of West Virginia

CITY           SKY/WX    TMP DP  RH WIND       PRES   REMARKS
WHEELING       PTCLDY    48  45  89 S5        30.04R
$$

WVZ009-281200-
Northwest West Virginia

CITY           SKY/WX    TMP DP  RH WIND       PRES   REMARKS
PARKERSBURG    CLEAR     47  44  90 CALM      30.05R
$$

WVZ006-281200-
Western West Virginia

CITY           SKY/WX    TMP DP  RH WIND       PRES   REMARKS
HUNTINGTON     CLEAR     48  46  93 CALM      30.02R FOG
$$

WVZ015-281200-
West Central West Virginia

CITY           SKY/WX    TMP DP  RH WIND       PRES   REMARKS
CHARLESTON     FOG       52  51  97 CALM      30.02R VSB 1/2
$$

WVZ022-031-281200-
North Central West Virginia

CITY           SKY/WX    TMP DP  RH WIND       PRES   REMARKS
CLARKSBURG     FOG       50  49  96 CALM      30.03R VSB 1/4
MORGANTOWN     FOG       50  48  93 CALM      30.05R VSB 1/4
$$

WVZ025-035-042-045-281200-
Southern West Virginia

CITY           SKY/WX    TMP DP  RH WIND       PRES   REMARKS
BECKLEY        CLEAR     53  51  93 E5        30.04F
LOGAN            N/A     55  54  94 E3        30.02R
BLUEFIELD      CLEAR     55  54  96 CALM      30.06R FOG
LEWISBURG      FOG       51  51  99 CALM      30.06R VSB<1/4
$$

WVZ047-281200-
Northern Mountains of West Virginia

CITY           SKY/WX    TMP DP  RH WIND       PRES   REMARKS
ELKINS         MOCLDY    50  48  93 CALM      30.05R FOG
$$

WVZ052-281200-
Eastern Panhandle of West Virginia

CITY           SKY/WX    TMP DP  RH WIND       PRES   REMARKS
MARTINSBURG    CLEAR     56  55  97 CALM      29.97R FOG
PETERSBURG     FOG       56  56 100 CALM      30.03R VSB<1/4
$$




USA.gov is the U.S. government's official web portal to all federal, state and local government web resources and services.